Location: *
(46.1866°S, 178.5290°W)
Time: 12:31:38
(UTC+00:00)

CZ-4B R/B - Visible Passes

Search period start: 21 September 2021 00:00
Search period end: 01 October 2021 00:00
Orbit: 809 x 881 km, 99.1° (Epoch: 21 September)

Date Brightness Start Highest point End Pass type
(mag) Time Alt. Az. Time Alt. Az. Time Alt. Az.
21 Sep 3.1 06:50:05 10° SSE 06:55:27 67° ENE 07:00:45 10° N visible
21 Sep 5.6 08:31:38 10° SSW 08:35:30 21° WSW 08:39:20 10° WNW visible
21 Sep 5.6 16:39:05 10° ENE 16:43:33 26° ESE 16:48:00 10° S visible
22 Sep 3.3 06:36:45 10° SSE 06:42:00 51° E 06:47:10 10° N visible
22 Sep 5.3 08:17:54 10° S 08:22:14 26° WSW 08:26:33 10° WNW visible
22 Sep 6.0 16:26:20 10° ENE 16:30:19 21° ESE 16:34:15 10° SSE visible
23 Sep 3.6 06:23:29 10° SSE 06:28:30 39° E 06:33:29 10° NNE visible
23 Sep 4.9 08:04:14 10° S 08:08:57 32° WSW 08:13:38 10° NW visible
23 Sep 6.1 16:13:45 10° E 16:17:05 17° SE 16:20:24 10° SSE visible
24 Sep 4.5 07:50:39 10° S 07:55:39 41° WSW 08:00:36 10° NW visible
24 Sep 6.3 16:01:27 10° E 16:03:53 13° SE 16:06:20 10° SSE visible
25 Sep 4.0 07:37:07 10° S 07:42:19 52° WSW 07:47:29 10° NW visible
25 Sep 6.6 15:50:02 10° ESE 15:50:43 10° SE 15:51:24 10° SE visible
26 Sep 3.5 07:23:37 10° S 07:28:57 67° WSW 07:34:14 10° NNW visible
26 Sep 6.3 09:06:42 10° SSW 09:08:31 12° SW 09:10:19 10° WSW visible
27 Sep 3.2 07:10:10 10° SSE 07:15:34 86° WSW 07:20:55 10° NNW visible
27 Sep 6.1 08:52:26 10° SSW 08:55:19 15° SW 08:58:12 10° W visible
27 Sep 5.1 16:58:35 10° NE 17:03:30 35° ESE 17:08:24 10° S visible
28 Sep 3.1 06:56:45 10° SSE 07:02:09 75° ENE 07:07:29 10° N visible
28 Sep 5.8 08:38:30 10° SSW 08:42:07 19° WSW 08:45:42 10° W visible
28 Sep 5.5 16:45:38 10° ENE 16:50:13 28° ESE 16:54:46 10° S visible
29 Sep 3.2 06:43:24 10° SSE 06:48:42 57° ENE 06:53:58 10° N visible
29 Sep 5.5 08:24:43 10° S 08:28:52 23° WSW 08:33:00 10° WNW visible
29 Sep 5.9 16:32:50 10° ENE 16:36:57 22° ESE 16:41:04 10° S visible
30 Sep 3.5 06:30:06 10° SSE 06:35:14 44° E 06:40:20 10° N visible
30 Sep 5.1 08:11:02 10° S 08:15:35 29° WSW 08:20:09 10° WNW visible
30 Sep 6.1 16:20:10 10° E 16:23:43 18° ESE 16:27:15 10° SSE visible
